Location: Honolulu
(21.3069°N, 157.8583°W)
Time: 09:19:27
(UTC-10:00)

S-56A Canister/Altair - Pass Details

Date: 14 September 2025
Orbit: 632 x 2485 km, 38.9° (Epoch: 14 January)

Event Time Altitude Azimuth Distance (km) Brightness Sun altitude
Rises 03:57:58 0° 302° (WNW) 4,736 - -32.9°
Reaches altitude 10° 04:01:10 10° 311° (NW) 4,003 - -32.2°
Exits shadow 04:02:56 16° 318° (NW) 3,658 10.7 -31.8°
Maximum altitude 04:11:18 37° 15° (NNE) 3,014 10.6 -29.9°
Drops below altitude 10° 04:24:15 10° 78° (ENE) 5,103 12.7 -27.0°
Sets 04:28:58 0° 86° (E) 6,155 13.4 -26.0°
